| time (UTC) | temp C | wind direction | speed KPH | gust KPH | rain 1hr cm | rain 24hr cm | rain mn cm | humidity % | barometer mb |
| 20260505070214 | 16 | 149 | 0.0 | 8.0 | 0.00 | 0.00 | 0.00 | 76 | 1009.9 |
| 20260505065715 | 16 | 175 | 0.0 | 8.0 | 0.00 | 0.00 | 0.00 | 75 | 1009.9 |
| 20260505065711 | 16 | 169 | 0.0 | 8.0 | 0.00 | 0.00 | 0.00 | 75 | 1009.9 |
| 20260505064713 | 16 | 158 | 0.0 | 8.0 | 0.00 | 0.00 | 0.00 | 76 | 1009.9 |
| 20260505064209 | 16 | 184 | 1.6 | 12.9 | 0.00 | 0.00 | 0.00 | 77 | 1009.9 |
| 20260505063710 | 16 | 293 | 1.6 | 12.9 | 0.00 | 0.00 | 0.00 | 77 | 1010.0 |
| 20260505063207 | 16 | 175 | 0.0 | 4.8 | 0.00 | 0.00 | 0.00 | 78 | 1009.9 |
| 20260505062705 | 16 | 198 | 0.0 | 1.6 | 0.00 | 0.00 | 0.00 | 79 | 1009.9 |
| 20260505062205 | 16 | 184 | 0.0 | 4.8 | 0.00 | 0.00 | 0.00 | 79 | 1009.9 |
| 20260505061706 | 16 | 184 | 1.6 | 4.8 | 0.00 | 0.00 | 0.00 | 79 | 1009.8 |
| 20260505061203 | 16 | 184 | 1.6 | 4.8 | 0.00 | 0.00 | 0.00 | 79 | 1009.9 |
| 20260505060707 | 16 | 171 | 1.6 | 8.0 | 0.00 | 0.00 | 0.00 | 79 | 1009.9 |
| 20260505060158 | 16 | 142 | 0.0 | 8.0 | 0.00 | 0.00 | 0.00 | 79 | 1009.9 |
| 20260505055657 | 16 | 158 | 0.0 | 3.2 | 0.00 | 0.00 | 0.00 | 79 | 1009.9 |
| 20260505055153 | 16 | 158 | 0.0 | 6.4 | 0.00 | 0.00 | 0.00 | 78 | 1009.8 |
| 20260505054921 | 16 | 158 | 0.0 | 8.0 | 0.00 | 0.00 | 0.00 | 78 | 1009.8 |
| 20260505054154 | 16 | 165 | 0.0 | 8.0 | 0.00 | 0.00 | 0.00 | 78 | 1009.9 |
| 20260505053647 | 16 | 179 | 0.0 | 11.3 | 0.00 | 0.00 | 0.00 | 78 | 1009.9 |
| 20260505053146 | 16 | 192 | 0.0 | 11.3 | 0.00 | 0.00 | 0.00 | 78 | 1010.0 |
| 20260505052647 | 16 | 225 | 0.0 | 8.0 | 0.00 | 0.00 | 0.00 | 78 | 1009.9 |
| 20260505052147 | 16 | 207 | 0.0 | 8.0 | 0.00 | 0.00 | 0.00 | 78 | 1009.9 |
| 20260505051645 | 16 | 169 | 0.0 | 8.0 | 0.00 | 0.00 | 0.00 | 79 | 1009.9 |
| 20260505051145 | 16 | 215 | 0.0 | 9.7 | 0.00 | 0.00 | 0.00 | 79 | 1009.9 |
| 20260505050641 | 16 | 144 | 1.6 | 9.7 | 0.00 | 0.00 | 0.00 | 79 | 1009.9 |
| 20260505050141 | 16 | 194 | 1.6 | 16.1 | 0.00 | 0.00 | 0.00 | 79 | 1009.9 |
| 20260505041629 | 16 | 178 | 0.0 | 6.4 | 0.00 | 0.00 | 0.00 | 78 | 1009.8 |
| 20260505041129 | 16 | 171 | 1.6 | 6.4 | 0.00 | 0.00 | 0.00 | 78 | 1009.7 |
| 20260505040631 | 16 | 184 | 0.0 | 6.4 | 0.00 | 0.00 | 0.00 | 78 | 1009.7 |
| 20260505040130 | 16 | 213 | 0.0 | 12.9 | 0.00 | 0.00 | 0.00 | 78 | 1009.8 |
| 20260505035631 | 16 | 171 | 1.6 | 12.9 | 0.00 | 0.00 | 0.00 | 77 | 1009.7 |
| 20260505035130 | 16 | 159 | 1.6 | 9.7 | 0.00 | 0.00 | 0.00 | 77 | 1009.7 |
| 20260505034630 | 16 | 193 | 1.6 | 9.7 | 0.00 | 0.00 | 0.00 | 76 | 1009.7 |
| 20260505034400 | 16 | 225 | 1.6 | 6.4 | 0.00 | 0.00 | 0.00 | 75 | 1009.8 |
| 20260505033630 | 16 | 188 | 0.0 | 8.0 | 0.00 | 0.00 | 0.00 | 74 | 1009.8 |
| 20260505033130 | 17 | 178 | 0.0 | 8.0 | 0.00 | 0.00 | 0.00 | 74 | 1009.7 |
| 20260505032630 | 17 | 159 | 0.0 | 8.0 | 0.00 | 0.00 | 0.00 | 73 | 1009.8 |
| 20260505032129 | 17 | 183 | 0.0 | 8.0 | 0.00 | 0.00 | 0.00 | 72 | 1009.8 |
| 20260505031901 | 17 | 223 | 0.0 | 8.0 | 0.00 | 0.00 | 0.00 | 71 | 1009.8 |
| 20260505031400 | 17 | 202 | 1.6 | 11.3 | 0.00 | 0.00 | 0.00 | 70 | 1009.8 |
| 20260505031251 | 17 | 207 | 0.0 | 9.7 | 0.00 | 0.00 | 0.00 | 69 | 1009.8 |
| 20260505030126 | 17 | 168 | 0.0 | 6.4 | 0.00 | 0.00 | 0.00 | 68 | 1009.7 |
| 20260505025626 | 17 | 227 | 0.0 | 6.4 | 0.00 | 0.00 | 0.00 | 68 | 1009.8 |
| 20260505025355 | 17 | 145 | 0.0 | 4.8 | 0.00 | 0.00 | 0.00 | 67 | 1009.7 |
| 20260505024625 | 17 | 190 | 1.6 | 12.9 | 0.00 | 0.00 | 0.00 | 68 | 1009.6 |
| 20260505024132 | 17 | 172 | 1.6 | 12.9 | 0.00 | 0.00 | 0.00 | 68 | 1009.6 |
| 20260505023628 | 17 | 169 | 0.0 | 3.2 | 0.00 | 0.00 | 0.00 | 69 | 1009.7 |
| 20260505023356 | 17 | 136 | 0.0 | 3.2 | 0.00 | 0.00 | 0.00 | 69 | 1009.6 |
| 20260505022625 | 17 | 188 | 1.6 | 16.1 | 0.00 | 0.00 | 0.00 | 69 | 1009.8 |
| 20260505022128 | 17 | 175 | 1.6 | 16.1 | 0.00 | 0.00 | 0.00 | 69 | 1009.8 |
| 20260505021624 | 17 | 169 | 0.0 | 12.9 | 0.00 | 0.00 | 0.00 | 68 | 1009.9 |
| 20260505021357 | 17 | 182 | 0.0 | 12.9 | 0.00 | 0.00 | 0.00 | 67 | 1009.8 |
| 20260505020625 | 17 | 202 | 0.0 | 1.6 | 0.00 | 0.00 | 0.00 | 67 | 1009.7 |
| 20260505020121 | 17 | 183 | 0.0 | 6.4 | 0.00 | 0.00 | 0.00 | 66 | 1009.6 |
| 20260505015621 | 17 | 167 | 0.0 | 6.4 | 0.00 | 0.00 | 0.00 | 66 | 1009.5 |
| 20260505015119 | 17 | 178 | 0.0 | 0.0 | 0.00 | 0.00 | 0.00 | 65 | 1009.5 |
| 20260505014619 | 17 | 217 | 0.0 | 0.0 | 0.00 | 0.00 | 0.00 | 65 | 1009.5 |
| 20260505014119 | 17 | 158 | 0.0 | 0.0 | 0.00 | 0.00 | 0.00 | 65 | 1009.5 |
| 20260505013622 | 17 | 166 | 0.0 | 0.0 | 0.00 | 0.00 | 0.00 | 64 | 1009.4 |
| 20260505013346 | 18 | 185 | 0.0 | 9.7 | 0.00 | 0.00 | 0.00 | 64 | 1009.4 |
| 20260505012613 | 18 | 206 | 0.0 | 9.7 | 0.00 | 0.00 | 0.00 | 63 | 1009.4 |
| 20260505012345 | 18 | 206 | 1.6 | 9.7 | 0.00 | 0.00 | 0.00 | 62 | 1009.3 |
| 20260505011614 | 18 | 216 | 1.6 | 16.1 | 0.00 | 0.00 | 0.00 | 61 | 1009.3 |
| 20260505011113 | 18 | 153 | 1.6 | 16.1 | 0.00 | 0.00 | 0.00 | 61 | 1009.3 |
| 20260505010612 | 18 | 175 | 1.6 | 11.3 | 0.00 | 0.00 | 0.00 | 61 | 1009.2 |
| 20260505010110 | 18 | 180 | 0.0 | 8.0 | 0.00 | 0.00 | 0.00 | 60 | 1009.2 |
| 20260505005611 | 18 | 180 | 0.0 | 8.0 | 0.00 | 0.00 | 0.00 | 59 | 1009.2 |
| 20260505005109 | 18 | 188 | 0.0 | 0.0 | 0.00 | 0.00 | 0.00 | 59 | 1009.2 |
| 20260505004609 | 18 | 188 | 0.0 | 0.0 | 0.00 | 0.00 | 0.00 | 58 | 1009.1 |
| 20260505004107 | 18 | 232 | 0.0 | 6.4 | 0.00 | 0.00 | 0.00 | 57 | 1009.1 |
| 20260505003606 | 18 | 246 | 0.0 | 6.4 | 0.00 | 0.00 | 0.00 | 57 | 1009.1 |
| 20260505003105 | 18 | 167 | 0.0 | 8.0 | 0.00 | 0.00 | 0.00 | 57 | 1009.1 |
| 20260505002603 | 18 | 155 | 0.0 | 8.0 | 0.00 | 0.00 | 0.00 | 57 | 1009.1 |
| 20260505002104 | 18 | 202 | 0.0 | 8.0 | 0.00 | 0.00 | 0.00 | 57 | 1009.0 |
| 20260505001604 | 18 | 175 | 0.0 | 8.0 | 0.00 | 0.00 | 0.00 | 57 | 1009.0 |
| 20260505001332 | 18 | 168 | 0.0 | 8.0 | 0.00 | 0.00 | 0.00 | 57 | 1009.0 |
| 20260505000603 | 18 | 155 | 0.0 | 4.8 | 0.00 | 0.00 | 0.00 | 58 | 1009.0 |
| 20260505000056 | 18 | 199 | 0.0 | 3.2 | 0.00 | 0.00 | 0.00 | 59 | 1009.0 |
| 20260504235556 | 18 | 196 | 0.0 | 8.0 | 0.00 | 0.00 | 0.00 | 59 | 1009.0 |
| 20260504235056 | 18 | 164 | 1.6 | 8.0 | 0.00 | 0.00 | 0.00 | 59 | 1009.0 |
| 20260504234558 | 18 | 231 | 1.6 | 8.0 | 0.00 | 0.00 | 0.00 | 60 | 1009.1 |
| 20260504234056 | 18 | 161 | 1.6 | 14.5 | 0.00 | 0.00 | 0.00 | 60 | 1009.0 |
| 20260504233555 | 18 | 161 | 1.6 | 14.5 | 0.00 | 0.00 | 0.00 | 59 | 1009.0 |
| 20260504233051 | 19 | 178 | 1.6 | 12.9 | 0.00 | 0.00 | 0.00 | 58 | 1009.1 |
| 20260504232553 | 19 | 174 | 1.6 | 12.9 | 0.00 | 0.00 | 0.00 | 56 | 1009.1 |
| 20260504232052 | 19 | 184 | 1.6 | 9.7 | 0.00 | 0.00 | 0.00 | 55 | 1009.0 |
| 20260504231821 | 20 | 192 | 1.6 | 11.3 | 0.00 | 0.00 | 0.00 | 54 | 1009.0 |
| 20260504231049 | 20 | 174 | 1.6 | 12.9 | 0.00 | 0.00 | 0.00 | 53 | 1009.0 |
| 20260504230550 | 20 | 204 | 1.6 | 12.9 | 0.00 | 0.00 | 0.00 | 52 | 1009.2 |
| 20260504230044 | 20 | 206 | 1.6 | 11.3 | 0.00 | 0.00 | 0.00 | 50 | 1009.1 |
| 20260504225545 | 20 | 214 | 3.2 | 9.7 | 0.00 | 0.00 | 0.00 | 48 | 1009.0 |
| 20260504225540 | 20 | 169 | 3.2 | 9.7 | 0.00 | 0.00 | 0.00 | 48 | 1009.0 |
| 20260504224537 | 20 | 167 | 3.2 | 16.1 | 0.00 | 0.00 | 0.00 | 47 | 1009.0 |
| 20260504224036 | 21 | 157 | 3.2 | 19.3 | 0.00 | 0.00 | 0.00 | 45 | 1008.9 |
| 20260504223531 | 21 | 148 | 3.2 | 20.9 | 0.00 | 0.00 | 0.00 | 43 | 1008.9 |
| 20260504223031 | 21 | 164 | 3.2 | 20.9 | 0.00 | 0.00 | 0.00 | 40 | 1009.0 |
| 20260504222531 | 21 | 224 | 4.8 | 20.9 | 0.00 | 0.00 | 0.00 | 39 | 1009.0 |
| 20260504222304 | 21 | 184 | 3.2 | 20.9 | 0.00 | 0.00 | 0.00 | 38 | 1009.0 |
| 20260504222151 | 22 | 145 | 3.2 | 17.7 | 0.00 | 0.00 | 0.00 | 38 | 1008.9 |
| 20260504221033 | 22 | 153 | 4.8 | 25.7 | 0.00 | 0.00 | 0.00 | 38 | 1008.9 |
| 20260504220530 | 22 | 212 | 6.4 | 25.7 | 0.00 | 0.00 | 0.00 | 37 | 1009.0 |
| 20260504220257 | 22 | 157 | 3.2 | 16.1 | 0.00 | 0.00 | 0.00 | 38 | 1008.9 |
| 20260504215525 | 22 | 161 | 1.6 | 14.5 | 0.00 | 0.00 | 0.00 | 37 | 1009.0 |
| 20260504215026 | 22 | 170 | 1.6 | 12.9 | 0.00 | 0.00 | 0.00 | 37 | 1009.0 |
| 20260504214525 | 22 | 162 | 4.8 | 19.3 | 0.00 | 0.00 | 0.00 | 36 | 1009.0 |
| 20260504214257 | 22 | 165 | 6.4 | 25.7 | 0.00 | 0.00 | 0.00 | 36 | 1009.1 |
| 20260504213524 | 22 | 155 | 6.4 | 25.7 | 0.00 | 0.00 | 0.00 | 36 | 1009.0 |
| 20260504213022 | 22 | 140 | 4.8 | 24.1 | 0.00 | 0.00 | 0.00 | 36 | 1009.1 |
| 20260504212523 | 22 | 193 | 1.6 | 14.5 | 0.00 | 0.00 | 0.00 | 35 | 1009.0 |
| 20260504212026 | 22 | 150 | 3.2 | 20.9 | 0.00 | 0.00 | 0.00 | 35 | 1009.0 |
| 20260504211523 | 22 | 132 | 3.2 | 20.9 | 0.00 | 0.00 | 0.00 | 37 | 1009.0 |
| 20260504211023 | 22 | 198 | 3.2 | 19.3 | 0.00 | 0.00 | 0.00 | 35 | 1009.0 |
| 20260504210523 | 22 | 193 | 3.2 | 14.5 | 0.00 | 0.00 | 0.00 | 36 | 1009.1 |
| 20260504210019 | 22 | 193 | 3.2 | 16.1 | 0.00 | 0.00 | 0.00 | 35 | 1009.1 |
| 20260504205518 | 22 | 191 | 1.6 | 16.1 | 0.00 | 0.00 | 0.00 | 35 | 1009.1 |
| 20260504205017 | 22 | 178 | 3.2 | 14.5 | 0.00 | 0.00 | 0.00 | 36 | 1009.1 |
| 20260504204520 | 22 | 150 | 3.2 | 14.5 | 0.00 | 0.00 | 0.00 | 36 | 1009.2 |
| 20260504204017 | 22 | 165 | 1.6 | 12.9 | 0.00 | 0.00 | 0.00 | 36 | 1009.3 |
| 20260504203519 | 22 | 159 | 3.2 | 16.1 | 0.00 | 0.00 | 0.00 | 37 | 1009.3 |
| 20260504203014 | 22 | 140 | 3.2 | 16.1 | 0.00 | 0.00 | 0.00 | 36 | 1009.4 |
| 20260504202514 | 22 | 176 | 3.2 | 16.1 | 0.00 | 0.00 | 0.00 | 35 | 1009.4 |
| 20260504202014 | 22 | 144 | 3.2 | 16.1 | 0.00 | 0.00 | 0.00 | 36 | 1009.5 |
| 20260504201745 | 22 | 153 | 4.8 | 16.1 | 0.00 | 0.00 | 0.00 | 35 | 1009.5 |
| 20260504201014 | 22 | 121 | 6.4 | 16.1 | 0.00 | 0.00 | 0.00 | 35 | 1009.6 |
| 20260504200518 | 22 | 119 | 4.8 | 17.7 | 0.00 | 0.00 | 0.00 | 36 | 1009.8 |
| 20260504200514 | 22 | 150 | 4.8 | 16.1 | 0.00 | 0.00 | 0.00 | 35 | 1009.7 |
| 20260504195742 | 22 | 162 | 4.8 | 22.5 | 0.00 | 0.00 | 0.00 | 35 | 1009.9 |
| 20260504195008 | 22 | 171 | 4.8 | 22.5 | 0.00 | 0.00 | 0.00 | 34 | 1010.0 |
| 20260504194738 | 22 | 180 | 3.2 | 19.3 | 0.00 | 0.00 | 0.00 | 35 | 1010.1 |
| 20260504194004 | 22 | 221 | 3.2 | 17.7 | 0.00 | 0.00 | 0.00 | 34 | 1010.2 |
| 20260504193504 | 21 | 149 | 3.2 | 16.1 | 0.00 | 0.00 | 0.00 | 35 | 1010.3 |
| 20260504193005 | 21 | 187 | 3.2 | 16.1 | 0.00 | 0.00 | 0.00 | 35 | 1010.4 |
| 20260504192506 | 21 | 186 | 3.2 | 16.1 | 0.00 | 0.00 | 0.00 | 36 | 1010.4 |
| 20260504192001 | 22 | 183 | 1.6 | 16.1 | 0.00 | 0.00 | 0.00 | 35 | 1010.5 |
| 20260504191504 | 22 | 143 | 1.6 | 8.0 | 0.00 | 0.00 | 0.00 | 36 | 1010.8 |
| 20260504191459 | 22 | 124 | 0.0 | 16.1 | 0.00 | 0.00 | 0.00 | 35 | 1010.6 |
| 20260504190501 | 21 | 184 | 1.6 | 19.3 | 0.00 | 0.00 | 0.00 | 36 | 1010.8 |
| 20260504190230 | 21 | 153 | 3.2 | 19.3 | 0.00 | 0.00 | 0.00 | 38 | 1010.9 |
| 20260504185732 | 21 | 140 | 4.8 | 17.7 | 0.00 | 0.00 | 0.00 | 35 | 1010.9 |
| 20260504185225 | 21 | 155 | 3.2 | 17.7 | 0.00 | 0.00 | 0.00 | 37 | 1011.0 |
| 20260504184454 | 21 | 191 | 4.8 | 17.7 | 0.00 | 0.00 | 0.00 | 37 | 1011.1 |
| 20260504183954 | 21 | 157 | 3.2 | 16.1 | 0.00 | 0.00 | 0.00 | 37 | 1011.1 |
| 20260504183454 | 21 | 213 | 1.6 | 12.9 | 0.00 | 0.00 | 0.00 | 35 | 1011.1 |
| 20260504182954 | 21 | 215 | 3.2 | 14.5 | 0.00 | 0.00 | 0.00 | 36 | 1011.0 |
| 20260504182454 | 21 | 171 | 4.8 | 16.1 | 0.00 | 0.00 | 0.00 | 35 | 1011.0 |
| 20260504181949 | 21 | 171 | 4.8 | 16.1 | 0.00 | 0.00 | 0.00 | 37 | 1011.1 |
| 20260504181725 | 21 | 162 | 3.2 | 14.5 | 0.00 | 0.00 | 0.00 | 36 | 1011.4 |
| 20260504181450 | 21 | 171 | 3.2 | 16.1 | 0.00 | 0.00 | 0.00 | 37 | 1011.2 |
| 20260504180720 | 20 | 156 | 3.2 | 14.5 | 0.00 | 0.00 | 0.00 | 37 | 1011.4 |
| 20260504175950 | 20 | 188 | 1.6 | 12.9 | 0.00 | 0.00 | 0.00 | 36 | 1011.5 |
| 20260504175451 | 20 | 226 | 1.6 | 11.3 | 0.00 | 0.00 | 0.00 | 37 | 1011.5 |
| 20260504174951 | 20 | 186 | 3.2 | 16.1 | 0.00 | 0.00 | 0.00 | 37 | 1011.6 |
| 20260504174434 | 20 | 143 | 4.8 | 19.3 | 0.00 | 0.00 | 0.00 | 37 | 1011.7 |
| 20260504173936 | 20 | 248 | 4.8 | 19.3 | 0.00 | 0.00 | 0.00 | 37 | 1011.7 |
| 20260504173438 | 20 | 170 | 3.2 | 9.7 | 0.00 | 0.00 | 0.00 | 38 | 1011.8 |
| 20260504172935 | 20 | 166 | 1.6 | 11.3 | 0.00 | 0.00 | 0.00 | 37 | 1011.8 |
| 20260504172432 | 20 | 160 | 3.2 | 17.7 | 0.00 | 0.00 | 0.00 | 38 | 1011.8 |
| 20260504171932 | 20 | 212 | 3.2 | 17.7 | 0.00 | 0.00 | 0.00 | 37 | 1011.8 |
| 20260504171430 | 20 | 227 | 3.2 | 16.1 | 0.00 | 0.00 | 0.00 | 36 | 1011.9 |
| 20260504170930 | 20 | 175 | 3.2 | 16.1 | 0.00 | 0.00 | 0.00 | 38 | 1011.9 |
| 20260504170430 | 20 | 193 | 1.6 | 16.1 | 0.00 | 0.00 | 0.00 | 37 | 1012.0 |
| 20260504160415 | 19 | 152 | 0.0 | 8.0 | 0.00 | 0.00 | 0.00 | 46 | 1013.0 |
| 20260504160146 | 18 | 202 | 1.6 | 12.9 | 0.00 | 0.00 | 0.00 | 46 | 1013.1 |
| 20260504150858 | 17 | 169 | 1.6 | 11.3 | 0.00 | 0.00 | 0.00 | 48 | 1013.5 |
| 20260504150356 | 17 | 150 | 1.6 | 11.3 | 0.00 | 0.00 | 0.00 | 47 | 1013.5 |
| 20260504150130 | 17 | 164 | 0.0 | 8.0 | 0.00 | 0.00 | 0.00 | 48 | 1013.6 |
| 20260504141119 | 16 | 144 | 1.6 | 11.3 | 0.00 | 0.00 | 0.00 | 51 | 1013.7 |
| 20260504140348 | 16 | 244 | 1.6 | 9.7 | 0.00 | 0.00 | 0.00 | 51 | 1013.7 |
| 20260504130329 | 15 | 146 | 1.6 | 16.1 | 0.00 | 0.00 | 0.00 | 54 | 1014.1 |
| 20260504120317 | 12 | 190 | 0.0 | 0.0 | 0.00 | 0.00 | 0.00 | 66 | 1014.3 |
| 20260504110531 | 5 | 306 | 0.0 | 0.0 | 0.00 | 0.00 | 0.00 | 91 | 1014.6 |
| 20260504100249 | 4 | 273 | 0.0 | 0.0 | 0.00 | 0.00 | 0.00 | 91 | 1014.5 |
| 20260504081727 | 4 | 273 | 0.0 | 0.0 | 0.00 | 0.00 | 0.00 | 90 | 1014.8 |
| 20260504081227 | 4 | 273 | 0.0 | 0.0 | 0.00 | 0.00 | 0.00 | 90 | 1014.7 |
| 20260504080724 | 4 | 273 | 0.0 | 0.0 | 0.00 | 0.00 | 0.00 | 89 | 1014.8 |
| 20260504080224 | 4 | 273 | 0.0 | 0.0 | 0.00 | 0.00 | 0.00 | 89 | 1014.8 |